Weather Roundup
Issued by NWS Springfield, MO

Home | Current Version | Previous Version | Text Only | Print | Product List | Glossary On
Versions: 1 2 3 4 5 6 7 8 9 10 11 12 13 14 15 16 17 18 19 20 21 22 23 24 25 26 27 28 29 30 31 32 33 34 35 36 37 38 39 40 41 42 43 44 45 46 47 48 49 50
000
NZUS99 KSGF 291107
HRRSGF

HOURLY WEATHER
NATIONAL WEATHER SERVICE SPRINGFIELD MO
600 AM CDT FRI APR 29 2016

......SGF CWA......

CITY           SKY/WX    TMP DP  RH WIND       PRES   REMARKS
SPRINGFIELD    CLOUDY    52  45  77 NE15      29.97F
JOPLIN         CLOUDY    52  47  83 NE10      29.95F
WEST PLAINS    CLOUDY    53  47  79 NE12      29.98F
ROLLA          CLEAR     49  46  90 NE8       30.01F
OSAGE BEACH    CLOUDY    48  39  71 NE7       30.01F

......SURROUNDING SGF CWA......

CITY           SKY/WX    TMP DP  RH WIND       PRES   REMARKS
CHANUTE        PTCLDY    51  44  77 NE10      29.97S
PARSONS        CLOUDY    52  47  83 N7        29.96S
COFFEYVILLE    CLOUDY    53  47  79 NE15      29.93F
EMPORIA        CLOUDY    48  44  86 NE14      29.98F
GROVE OK       CLOUDY    55  52  88 NE9       29.92S
ROGERS AR      CLOUDY    60  46  59 E14       29.91R
SILOAM SPRINGS CLOUDY    61  43  51 NE6       29.90S
HARRISON AR    CLOUDY    52  49  89 CALM      29.96R
NEAR YELLVILLE CLOUDY   N/A N/A N/A NE7       29.93R

......KANSAS AND MISSOURI......

CITY           SKY/WX    TMP DP  RH WIND       PRES   REMARKS
KANSAS CTY INT CLOUDY    47  43  86 NE6       30.04S
DOWNTOWN KC    CLOUDY    49  43  80 NE8       30.04S
COLUMBIA       PTCLDY    49  47  93 NE6       30.04F
SEDALIA        CLOUDY    49  45  86 NE8       30.03F
ST JOSEPH      CLOUDY    46  40  79 NE5       30.06R
ST LOUIS       CLOUDY    54  49  83 N6        30.05F
SPIRIT OF STL  CLEAR     53  49  86 CALM      30.04F
KIRKSVILLE     CLOUDY    47  44  90 N12       30.03F
WICHITA        CLOUDY    52  46  80 NE24      29.89F
TOPEKA         CLOUDY    49  45  86 NE8       30.05S
OLATHE         PTCLDY    48  43  82 NE10      30.02S

......TENNESSEE......

CITY           SKY/WX    TMP DP  RH WIND       PRES   REMARKS
MEMPHIS        PTCLDY    65  50  58 E7        29.92F
NASHVILLE      CLOUDY    57  52  83 CALM      30.02R

......ARKANSAS.......

CITY           SKY/WX    TMP DP  RH WIND       PRES   REMARKS
FAYETTEVILLE   CLOUDY    57  50  77 E5        29.91R
FT SMITH       TSTM      60  55  83 NE14      29.83R
LITTLE ROCK    CLOUDY    68  51  54 E16       29.85F

......OKLAHOMA.......

CITY           SKY/WX    TMP DP  RH WIND       PRES   REMARKS
TULSA          LGT RAIN  58  54  86 VRB5      29.86R
PONCA CITY     CLOUDY    54  46  74 NE21G30   29.83F
MCALESTER      RAIN      62  59  90 NE13G25   29.77F FOG
OKLAHOMA CITY  CLOUDY    57  54  89 NE15      29.77F

......IOWA............

CITY           SKY/WX    TMP DP  RH WIND       PRES   REMARKS
DES MOINES     CLOUDY    47  42  83 N9        30.10S
QUAD CITIES    CLOUDY    46  42  86 NW7       30.10R FOG

......ILLINOIS........

CITY           SKY/WX    TMP DP  RH WIND       PRES   REMARKS
QUINCY         CLOUDY    50  47  89 N7        30.06F
CHICAGO        CLOUDY    42  41  96 N7        30.04R FOG




USA.gov is the U.S. government's official web portal to all federal, state and local government web resources and services.